小惑星A/2023 H4

A/2023 H4

English version
Home page
Updated on October 14, 2023

---------------------------------------------------------------------

・ プロフィール

発見日 2023年4月23日
発見光度 21.9等
発見者 Pan-STARRS 2 telescope (Haleakala)

・ 軌道要素

Epoch 2023 Sept. 13.0 TT = JDT 2460200.5
T 2023 Aug. 8.80257 TT                                  Rudenko
q   2.1192968            (2000.0)            P               Q
z  +0.0071078      Peri.   64.89695     -0.10561989     +0.64826731
 +/-0.0000149      Node   230.81363     -0.77361469     +0.42287334
e   0.9849364      Incl.   76.61857     +0.62479177     +0.63318846
H   18.0
>From 69 observations 2023 Apr. 23-Sept. 12, mean residual 0".1.

・ 光度変化

        H = 18.0  G = 0.15

---------------------------------------------------------------------

軌道要素はM.P.E.C. 2023-S260に掲載されたものです。
光度グラフはComet for Windowsで作成したものです。

---------------------------------------------------------------------

Copyright(C) Seiichi Yoshida (comet@aerith.net). All rights reserved.